Flag for Czech Republic Weather past 2 weeks in Prague, Czech Republic

Now
75 °F

Passing clouds.


Feels Like: 78 °F
Forecast: 63 / 90 °F
Wind: 5 mph from East

Location: Prague Ruzyne Airport

Current Time: Aug 3, 2015 at 11:42:45 AM

Latest Report: Aug 3, 2015 at 11:00 AM


Visibility: N/A

Pressure: 30.12 "Hg

Humidity: 44%

Dew point: 52 °F

Location of PragueLocation

Historic Weather in Prague — Graph

°F

Prague temperature yesterday

Maximum temperature yesterday: 77 °F (at 1:00 PM)
Minimum temperature yesterday: 63 °F (at 5:00 AM)
Average temperature yesterday: 70 °F

Past Weeks' High & Low Weather Summary

 TemperatureHumidityPressure
High97 °F (Jul 22, 4:00 PM)100% (Jul 25, 7:30 AM)30.15 "Hg (Jul 25, 7:30 AM)
Low46 °F (Jul 31, 5:00 AM)23% (Jul 22, 4:30 PM)29.65 "Hg (Jul 27, 3:30 PM)
Average68 °F59%29.92 "Hg
* Reported Jul 19 10:00 AM — Aug 3 10:30 AM, Prague, Weather by CustomWeather, © 2015

Note: Actual official high and low records may vary slightly from our data, if they occured in-between our weather recording intervals... More about our weather records

Advertising

Prague weather history for previous 24 hours

 ConditionsComfort  
Time TempWeatherWind HumidityBarometerVisibility
10:30 AM
Mon, Aug 3
73 °FSunny.3 mph53%30.12 "Hg10 mi
10:00 AM72 °FPassing clouds.3 mph57%30.12 "HgN/A
9:30 AM72 °FPassing clouds.3 mph61%30.12 "HgN/A
9:00 AM70 °FPassing clouds.3 mph64%30.12 "HgN/A
8:30 AM68 °FPassing clouds.3 mph64%30.15 "HgN/A
8:00 AM66 °FSunny.2 mph73%30.15 "Hg10 mi
7:30 AM64 °FSunny.2 mph78%30.12 "Hg10 mi
7:00 AM63 °FSunny.No wind83%30.12 "Hg10 mi
6:30 AM61 °FClear.2 mph83%30.12 "Hg10 mi
6:00 AM57 °FClear.1 mph88%30.12 "Hg10 mi
5:30 AM61 °FClear.2 mph83%30.12 "Hg10 mi
5:00 AM59 °FClear.3 mph82%30.12 "Hg10 mi
4:30 AM61 °FClear.2 mph83%30.12 "Hg10 mi
4:00 AM61 °FClear.1 mph88%30.12 "Hg10 mi
3:30 AM63 °FClear.2 mph77%30.12 "Hg10 mi
3:00 AM63 °FClear.2 mph77%30.12 "Hg10 mi
2:30 AM63 °FClear.1 mph83%30.12 "Hg10 mi
2:00 AM64 °FClear.3 mph73%30.15 "Hg10 mi
1:30 AM63 °FClear.3 mph77%30.15 "Hg10 mi
1:00 AM64 °FClear.5 mph73%30.15 "Hg10 mi
12:30 AM66 °FClear.6 mph73%30.15 "Hg10 mi
12:00 AM66 °FClear.6 mph73%30.15 "Hg10 mi
11:30 PM
Sun, Aug 2
68 °FClear.5 mph69%30.15 "Hg10 mi
11:00 PM68 °FClear.7 mph69%30.15 "Hg10 mi
10:30 PM66 °FClear.6 mph73%30.15 "Hg10 mi
10:00 PM68 °FClear.6 mph69%30.15 "Hg10 mi
9:30 PM68 °FPassing clouds.5 mph73%30.15 "HgN/A
9:00 PM68 °FSunny.6 mph73%30.12 "Hg10 mi
8:30 PM68 °FSunny.3 mph69%30.12 "Hg10 mi
8:00 PM70 °FSunny.5 mph64%30.12 "Hg10 mi
7:30 PM72 °FSunny.8 mph65%30.12 "Hg10 mi
7:00 PM72 °FSunny.10 mph65%30.12 "Hg10 mi
6:30 PM72 °FSunny.10 mph61%30.12 "Hg10 mi
6:00 PM73 °FSunny.13 mph53%30.12 "Hg10 mi
5:30 PM73 °FSunny.14 mph53%30.12 "Hg10 mi
5:00 PM73 °FSunny.13 mph57%30.12 "Hg10 mi
4:30 PM75 °FSunny.12 mph50%30.12 "Hg10 mi
4:00 PM75 °FSunny.10 mph50%30.12 "Hg10 mi
3:30 PM75 °FPassing clouds.10 mph50%30.12 "HgN/A
3:00 PM75 °FPassing clouds.9 mph50%30.12 "HgN/A
2:30 PM77 °FPassing clouds.10 mph47%30.12 "HgN/A
2:00 PM75 °FPassing clouds.10 mph50%30.12 "HgN/A
1:30 PM77 °FPassing clouds.9 mph47%30.12 "HgN/A
1:00 PM77 °FPassing clouds.8 mph51%30.12 "HgN/A
12:30 PM75 °FPassing clouds.9 mph54%30.12 "HgN/A
12:00 PM75 °FPassing clouds.10 mph54%30.09 "HgN/A
11:30 AM73 °FPassing clouds.9 mph53%30.09 "HgN/A
11:00 AM73 °FPassing clouds.9 mph53%30.09 "HgN/A
Weather by CustomWeather, © 2015

See weather overviewHow to use our weather pages